#timestamp,LO_Frequency,Hit,StdDev 
1674244815.0,286047002.4,N
1674244815.9,286047002.4,P
1674244835.7,286047002.1,P
1674244855.6,286047001.7,Y
1674244875.4,286047002.6,P
1674244895.2,286047004.3,P
1674244915.1,286047003.4,P
1674244916.0,286047003.4,Y
1674244935.8,286047005.4,P
1674244955.7,286047007.1,P
1674244975.5,286047006.8,P
1674244995.3,286047006.1,Y
1674245015.1,286047004.0,P
1674245035.9,286047005.9,P
1674245055.7,286047005.1,P
1674245075.6,286047005.1,Y
1674245095.4,286047004.3,P
1674245115.2,286047005.4,P
1674245135.0,286047006.6,P
1674245136.0,286047006.6,Y
1674245155.8,286047000.6,P
1674245175.6,286047003.8,N
1674245195.5,286047000.1,N
1674245215.3,286047001.5,N
1674245235.1,286047002.6,N
1674245255.8,286047002.2,N
1674245275.7,286047001.9,N
1674245295.5,286047004.3,N
1674245315.3,286047000.1,N
1674245335.2,286047000.8,N
1674245355.0,286047001.1,N
1674245355.9,286047001.1,N
1674245375.7,286047001.0,N
1674245395.6,286046998.2,N
1674245415.4,286046998.3,N
1674245435.2,286047000.8,N
1674245455.1,286047000.1,N
1674245456.0,286047000.1,N
1674245475.8,286047001.3,N
1674245495.6,286047005.7,Y
1674245515.5,286047002.9,P
1674245535.3,286047005.0,P
1674245555.1,286047005.6,P
1674245575.9,286047007.2,Y
1674245595.7,286047001.6,P
1674245615.5,286047005.6,P
1674245635.4,286047003.9,N
1674245655.2,286047003.2,N
1674245675.0,286047006.2,Y
1674245676.0,286047006.2,P
1674245695.8,286047004.0,P
1674245715.6,286047004.2,P
1674245735.5,286047006.0,Y
1674245755.3,286046998.2,P
1674245775.1,286046999.2,N
1674245795.9,286046997.1,N
1674245815.7,286046998.0,N
1674245835.5,286046994.9,N
1674245855.4,286046997.5,N
1674245875.2,286046999.3,N
1674245895.0,286046999.6,N
1674245895.9,286046999.6,N
1674245915.8,286046998.4,N
1674245935.6,286047000.7,N
1674245955.4,286046999.9,N
1674245975.3,286047002.5,N
1674245995.1,286047002.4,N
1674245996.0,286047002.4,N
1674246015.8,286047002.7,N
1674246035.7,286047002.4,N
1674246055.5,286047000.9,N
1674246075.3,286047000.6,N
1674246095.2,286047002.4,N
1674246115.9,286047001.3,N
1674246135.7,286047003.8,N
1674246155.6,286047001.3,N
1674246175.4,286047003.1,N
1674246195.2,286047004.0,N
1674246215.1,286047004.2,N
1674246216.0,286047004.2,N
1674246235.8,286047004.0,N
1674246255.6,286047001.5,N
1674246275.5,286047003.9,N
1674246295.3,286047003.8,N
1674246315.1,286047003.5,N
1674246335.9,286047006.0,N
1674246355.7,286047005.4,N
1674246375.5,286047005.2,N
1674246395.4,286047005.8,N
1674246415.2,286047005.1,N
1674246435.0,286047007.3,Y
1674246435.9,286047007.3,P
1674246455.8,286047005.5,N
1674246475.6,286047002.9,N
1674246495.4,286047006.0,Y
1674246515.3,286047001.2,P
1674246535.1,286047001.0,N
1674246555.8,286046998.6,N
1674246575.7,286046999.3,N
1674246595.5,286046999.0,N
1674246615.3,286046998.9,N
1674246635.2,286047001.2,N
1674246655.9,286046998.2,N
1674246675.7,286047000.9,N
1674246695.6,286047000.8,N
1674246715.4,286047000.6,N
1674246735.2,286046998.1,N
1674246755.1,286046998.1,N
1674246756.0,286046998.1,N
1674246775.8,286046998.6,N
1674246795.6,286047000.7,N
1674246815.5,286047000.7,N
1674246835.3,286046999.3,N
1674246855.1,286046999.5,N
1674246875.9,286046998.9,N
1674246895.7,286046998.1,N
1674246915.5,286046998.9,N
1674246935.4,286046997.2,N
1674246955.2,286046997.5,N
1674246975.0,286046997.8,N
1674246975.9,286046997.8,N
1674246995.8,286046995.4,N
1674247015.6,286046995.0,N
1674247035.4,286046997.9,N
1674247055.3,286046996.1,N
1674247075.1,286046995.6,N
1674247076.0,286046995.6,N
1674247095.8,286046995.3,N
1674247115.7,286046997.9,N
1674247135.5,286046998.9,N
1674247155.3,286046999.7,N
1674247175.2,286047002.1,N
1674247195.9,286047000.1,N
1674247215.7,286047002.1,N
1674247235.6,286047002.8,N
1674247255.4,286047000.6,N
1674247275.2,286047001.1,N
1674247295.1,286046997.1,N
1674247296.0,286046997.1,N
1674247315.8,286046996.8,N
1674247335.6,286046995.7,N
1674247355.5,286046999.2,N
1674247375.3,286046999.6,N
1674247395.1,286046996.7,N
1674247415.9,286046994.9,N
1674247435.7,286046994.1,N
1674247455.5,286046992.5,Y
1674247475.4,286046993.6,P
1674247495.2,286046994.3,N
1674247515.0,286046992.0,P
1674247515.9,286046992.0,Y
1674247535.8,286046993.3,P
1674247555.6,286047001.2,N
1674247575.4,286047002.4,N
1674247595.3,286046999.8,N
1674247615.1,286046999.7,N
1674247635.8,286047000.7,N
1674247655.7,286046998.7,N
1674247675.5,286046998.6,N
1674247695.3,286046997.2,N
1674247715.2,286046998.0,N
1674247735.0,286046996.2,N
1674247735.9,286046996.2,N
1674247755.7,286046996.7,N
1674247775.6,286046999.5,N
1674247795.4,286047001.1,N
1674247815.2,286046996.5,N
1674247835.1,286046995.8,N
1674247836.0,286046995.8,N
1674247855.8,286046996.0,N
1674247875.6,286046994.8,N
1674247895.5,286046990.7,Y
1674247915.3,286046997.1,P
1674247935.1,286047001.0,P
1674247955.9,286047004.0,N
1674247975.7,286046999.7,N
1674247995.6,286046998.6,N
1674248015.4,286046996.6,N
1674248035.2,286046998.4,N
1674248055.1,286046999.3,N
1674248056.0,286046999.3,N
1674248075.8,286046996.8,N
1674248095.6,286046997.6,N
1674248115.5,286046993.7,Y
1674248135.3,286046994.2,P
1674248155.1,286046992.3,P
1674248175.9,286046991.2,P
1674248195.7,286046988.5,Y
1674248215.5,286046997.4,P
1674248235.4,286046997.9,N
1674248255.2,286046996.8,N
1674248275.0,286046995.1,Y
1674248275.9,286046995.1,P
1674248295.8,286046998.2,N
1674248315.6,286046999.4,N
1674248335.4,286046998.3,N
1674248355.3,286046996.7,N
1674248375.1,286046997.2,N
1674248395.8,286046995.4,Y
